Flag for U.S.A. Weather past 2 weeks in Redmond, Washington, U.S.A.

Now
54 °F

Overcast.


Feels Like: 53 °F
Forecast: 44 / 50 °F
Wind: 6 mph from Southeast

Location: Seattle Boeing Field

Current Time: Dec 21, 2014 at 7:04:02 PM

Latest Report: Dec 21, 2014 at 5:53 PM


Visibility: 10 mi

Pressure: 30.06 "Hg

Humidity: 69%

Dew point: 44 °F

Location of RedmondLocation

Historic Weather in Redmond — Graph

°F

Redmond temperature yesterday

Maximum temperature yesterday: 58 °F (at 7:53 PM)
Minimum temperature yesterday: 46 °F (at 1:53 AM)
Average temperature yesterday: 50 °F

Past Weeks' High & Low Weather Summary

 TemperatureHumidityPressure
High68 °F (Dec 10, 10:53 AM)93% (Dec 7, 9:55 AM)30.24 "Hg (Dec 7, 9:55 AM)
Low38 °F (Dec 14, 7:53 AM)27% (Dec 14, 3:53 PM)29.13 "Hg (Dec 11, 3:53 PM)
Average51 °F71%29.84 "Hg
* Reported Dec 6 5:53 PM — Dec 21 5:53 PM, Redmond, Weather by CustomWeather, © 2014

Note: Actual official high and low records may vary slightly from our data, if they occured in-between our weather recording intervals... More about our weather records

Advertising

Redmond weather history for previous 24 hours

 ConditionsComfort  
Time TempWeatherWind HumidityBarometerVisibility
5:53 PM
Dec 21
54 °FOvercast.6 mph69%30.06 "Hg10 mi
4:53 PM54 °FMostly cloudy.6 mph74%30.02 "Hg10 mi
3:53 PM56 °FOvercast.5 mph65%30.00 "Hg10 mi
3:00 PM57 °FOvercast.8 mph63%30.01 "Hg10 mi
1:53 PM58 °FPartly sunny.12 mph62%29.98 "Hg10 mi
12:53 PM57 °FPartly sunny.10 mph67%29.94 "Hg10 mi
11:53 AM56 °FBroken clouds.6 mph70%29.94 "Hg10 mi
10:53 AM55 °FPartly sunny.No wind72%29.93 "Hg10 mi
9:53 AM54 °FMostly cloudy.No wind77%29.92 "Hg10 mi
8:53 AM54 °FOvercast.5 mph77%29.88 "Hg10 mi
7:53 AM54 °FOvercast.3 mph77%29.84 "Hg10 mi
6:53 AM54 °FPassing clouds.No wind74%29.79 "Hg10 mi
5:53 AM54 °FPassing clouds.6 mph74%29.78 "Hg10 mi
4:53 AM54 °FPassing clouds.12 mph72%29.75 "Hg10 mi
3:53 AM54 °FPassing clouds.9 mph74%29.72 "Hg10 mi
2:53 AM55 °FPassing clouds.No wind69%29.71 "Hg10 mi
1:53 AM56 °FPassing clouds.7 mph70%29.63 "Hg10 mi
12:53 AM57 °FPassing clouds.14 mph74%29.59 "Hg10 mi
12:00 AM57 °FPassing clouds.13 mph72%29.54 "Hg10 mi
10:53 PM
Dec 20
58 °FPassing clouds.14 mph72%29.49 "Hg10 mi
10:00 PM57 °FMostly cloudy.16 mph82%29.48 "Hg10 mi
8:53 PM58 °FPassing clouds.16 mph78%29.46 "Hg10 mi
7:53 PM58 °FMostly cloudy.14 mph81%29.46 "Hg10 mi
Weather by CustomWeather, © 2014

See weather overviewHow to use our weather pages